Local forecast test

Standalone 24 hour forecast from cron-generated local cache

Current external
0°C
Humidity out / in
0% / 64%
Pressure
999 hPa · 749 mmHg
Signal
dry_heat
History
76542 samples

24 hour external temperature forecast

Model state

Last sample2026-08-29 16:21
History range2024-06-07 00:03 → 2026-08-29 16:21
Season modeisrael_summer_hot_dry
Regional signalDry Israeli warm pattern
Learningenabled, 101 daily starts, strength 0.2
Generated2026-08-29 16:21:37
Cache fileforecast_data/current.json

Hourly points

TimeTempConfidenceHistory
17:21 0.3°C 83% 1182
18:21 3.6°C 82% 1182
19:21 6.8°C 81% 1184
20:21 8.2°C 80% 1184
21:21 9.5°C 79% 1184
22:21 10.8°C 78% 1184
23:21 12.1°C 77% 1179
00:21 13.5°C 76% 1182
01:21 13.6°C 75% 1184
02:21 13.6°C 74% 1184
03:21 13.7°C 73% 1184
04:21 13.9°C 71% 1184
05:21 14°C 70% 1184
06:21 14.4°C 69% 1184
07:21 14.8°C 68% 1184
08:21 15.7°C 67% 1184
09:21 16.6°C 66% 1184
10:21 17.5°C 65% 1183
11:21 18.7°C 64% 1184
12:21 19.8°C 63% 1184
13:21 20.8°C 62% 1180
14:21 21.6°C 61% 1184
15:21 22.3°C 60% 1181
16:21 22.6°C 60% 1174